www.pogodaiklimat.ru

Погода и климат >> Архив погоды >> Россия >> Челябинская область >> Аргаяш


ПОГОДА в Аргаяше

  • Прогноз погоды в Аргаяше
  • Монитор погоды в Аргаяше

АРХИВ ПОГОДЫ в Аргаяше

Время (UTC), дата Ветер
(напр.,м/с)
 
Видим.   Явления Облачность Т
(С)
Тd
(С)
f
(%)
Тe
(С)
Тes
(С)
Комфортность P
(гПа)
Po
(гПа)
Тmin
(С)
Tmax
(С)
R
(мм)
R24
(мм)
S
(см)
18 19.05 З 1 10 км 3/3 600 м
[Sc diur, vesp Ci fib]
-0.4 -2.9 83 -2 -2 1006.9 975.2
21 19.05 З 2 10 км 3/0
[Ci fib]
-0.0 -1.8 88 -4 -4 1007.0 975.4
00 20.05 З 2 10 км ясно -0.3 -1.8 90 -4 -4 1007.5 975.8
03 20.05 З 4 20 км 1/1 600 м
[Sc]
+5.3 +0.2 70 +2 +4 1006.9 975.9 -1.4
06 20.05 СЗ 4
{10}
20 км 8/8 600 м
[Cu Sc]
+8.1 -1.4 51 +5 +7 1006.5 975.8
09 20.05 СЗ 5
{11}
20 км {ливн. осадки} 8/8 600 м
[Cb cap]
+8.3 -2.1 48 +5 +7 1007.1 976.4
12 20.05 З 4
{11}
20 км {ливн. осадки} 8/8 600 м
[Cu Sc]
+8.4 -1.1 51 +6 +7 1007.9 977.2
15 20.05 СЗ 4
{10}
20 км в посл. час ливневой дождь 8/8 600 м
[Cb cap]
+5.8 +1.6 74 +2 +2 1008.3 977.4 +9.1 0.0
18 20.05 З 3 10 км {ливн. осадки} 3/3 600 м
[Sc]
+3.1 +0.5 83 -1 -1 1009.6 978.3
21 20.05 З 2 10 км 3/3 600 м
[Sc]
+1.6 -0.5 86 -2 -2 1009.7 978.1
00 21.05 З 2 10 км 4/4 600 м
[Sc]
+1.8 -0.0 88 -2 -2 1009.4 977.9
03 21.05 З 4 20 км 3/0
[Ac lent]
+6.3 -0.5 62 +3 +5 1009.1 978.1 +0.9
06 21.05 СЗ 6-11
{11}
10 км в посл. час ливневой дождь 10/8 600 м
[Cb cap Ci ing]
+8.0 -2.9 46 +4 +5 1009.4 978.6
09 21.05 СЗ 6-10
{15}
20 км 10/6 600 м
[Cb cap Cs]
+7.8 -1.7 51 +4 +6 1010.9 980.0
12 21.05 С 4-10
{12}
20 км 9/8 600 м
[Cb cap Ac cuf Ci ing]
+8.2 -1.0 52 +5 +6 1011.5 980.7
15 21.05 С 3
{10}
20 км 10/10 600 м
[Sc]
+6.1 -0.9 61 +3 +3 1013.3 982.2 +9.6 0.0
18 21.05 СЗ 2 10 км 10/10 600 м
[Sc]
+4.9 -0.7 67 +3 +3 1014.3 983.1
21 21.05 З 1 10 км 10/10 600 м
[Sc]
+2.9 -0.6 78 +1 +1 1014.4 983.0
00 22.05 ЮЗ 1 10 км 4/4 600 м
[Sc]
+0.9 -0.7 89 -1 -1 1014.5 982.8
03 22.05 З 3 20 км 9/0
[Ac trans Cc]
+7.0 0.0 61 +4 +7 1014.0 983.0 -0.5
06 22.05 СЗ 4
{10}
20 км 10/4 600 м
[Cu hum Cc]
+11.5 -3.1 36 +10 +14 1014.3 983.8
09 22.05 СЗ 3 20 км 9/9 600 м
[Cu Sc]
+12.0 -4.4 31 +11 +12 1013.3 982.8
12 22.05 СЗ 3 20 км 9/9 600 м
[Cu Sc]
+13.0 -5.4 27 +12 +13 1013.2 982.8
15 22.05 ЮЗ 1 20 км 9/5 600 м
[Cu Sc Ac cast]
+12.8 -3.9 31 +13 +13 1012.8 982.4 +13.7
18 22.05 ЮЗ 1 10 км 9/6 600 м
[Sc Ac cast]
+6.0 -1.2 60 +5 +5 1013.6 982.5
21 22.05 З 1 10 км 8/8 600 м
[Sc]
+2.1 -2.3 73 +1 +1 1013.8 982.2
00 23.05 Ю 1 10 км 4/4 600 м
[Cu Sc]
+1.8 -1.5 79 0 0 1013.5 981.8
03 23.05 Ю 2 20 км 3/0
[Ac lent Cc]
+11.7 -0.4 43 +11 +15 1011.5 981.0 +1.2
06 23.05 ЮЗ 4 20 км 8/3 600 м
[Cu hum Ci]
+17.5 -4.5 22 +17 +22 1009.7 979.9
09 23.05 ЮЗ 5-10
{11}
20 км 10/4 600 м
[Cu hum Ac cast Cs]
+19.8 -3.1 21 +20 +22 1007.0 977.5
12 23.05 ЮЗ 5
{12}
20 км 9/3 600 м
[Cb cap Cc]
+17.8 +3.2 38 +17 +19 1005.0 975.4
15 23.05 З 3
{10}
20 км 9/6 600 м
[Cb cap Ac cuf Cc]
+14.5 +7.1 61 +14 +14 1004.1 974.3 +19.8
18 23.05 ЮЗ 3 10 км {ливн. осадки} 10/6 600 м
[Cb cap Ac cuf Cs]
+12.0 +8.7 80 +10 +10 1002.8 972.6
21 23.05 Ю 3 10 км {ливн. осадки} 8/3 600 м
[Cb cap Ci fib]
+11.5 +8.6 82 +10 +10 1001.0 970.9
00 24.05 ЮЗ 3 10 км {ливн. осадки} 8/8 600 м
[Sc]
+14.0 +5.6 57 +13 +13 999.3 969.4
03 24.05 ЮЗ 3 20 км 9/8 600 м
[Cb cap Ac cuf Ci fib]
+12.6 +5.6 62 +11 +12 999.1 969.1 +10.9 0.6
06 24.05 З 2 4000 м слаб. ливневой дождь 10/10 600 м
[Cb cap]
+11.2 +8.7 85 +10 +10 999.6 969.4
09 24.05 З 3 4000 м ливневой дождь 10/10 600 м
[Cb cap]
+11.0 +9.5 90 +9 +9 1000.7 970.5
12 24.05 С 3 4000 м ливневой дождь {метель} 10/10 300 м
[Cb cap]
+7.3 +5.8 90 +4 +4 1003.0 972.3
15 24.05 СЗ 2 10 км в посл. час ливневой дождь 9/9 300 м
[Cb cap]
+5.5 +4.0 90 +3 +3 1005.3 974.4 +13.0 20
18 24.05 СЗ 4 10 км {ливн. осадки} 6/6 600 м
[Cb cap]
+4.6 +0.1 73 +1 +1 1007.4 976.3
21 24.05 СЗ 2 10 км 3/3 600 м
[Sc]
+1.8 -2.5 73 -1 -1 1011.4 979.8
00 25.05 СЗ 3 10 км ясно +0.5 -3.3 76 -4 -4 1013.0 981.2
03 25.05 С 4 20 км ясно +4.1 -3.5 58 0 +3 1014.8 983.5 +0.2
06 25.05 СЗ 4
{10}
20 км 6/6 600 м
[Cb cap]
+7.1 -4.7 43 +4 +8 1015.8 984.7
09 25.05 СЗ 5
{11}
20 км 6/6 600 м
[Sc diur, vesp]
+8.2 -6.5 35 +5 +8 1016.1 985.1
12 25.05 СЗ 5
{10}
20 км 3/3 600 м
[Sc diur, vesp]
+9.6 -6.6 31 +7 +10 1016.6 985.7
15 25.05 СЗ 3
{10}
20 км 1/1 600 м
[Cu hum]
+9.5 -6.3 32 +8 +8 1017.0 986.1 +10.3
18 25.05 З 1 10 км 1/1 600 м
[Sc diur, vesp]
-1.7 -3.8 86 -4 -4 1019.8 987.6
21 25.05 ЮЗ 1 10 км 8/8 600 м
[Sc]
-0.1 -1.5 90 -2 -2 1021.3 989.2
00 26.05 З 1 10 км 3/0
[Ci fib]
+1.6 -2.2 76 0 0 1022.2 990.2
03 26.05 З 2 20 км 1/0
[Ci fib]
+8.6 -0.6 52 +7 +12 1022.6 991.4 -2.2
06 26.05 З 2 20 км 10/3 600 м
[Cu hum Cc]
+12.9 -2.5 34 +13 +20 1021.8 991.1
09 26.05 З 3 20 км 10/0
[Cc]
+15.4 -3.4 27 +15 +25 1020.8 990.4
12 26.05 ЮЗ 2 20 км 10/0
[Cc]
+17.4 -3.6 24 +18 +23 1019.2 989.1
15 26.05 Ю 2 20 км 10/0
[Cc]
+17.2 -1.5 28 +18 +18 1018.7 988.6 +18.4

 

Местоположение метеостанции Аргаяш (Челябинская область, Россия): широта 55.55 долгота 60.90 высота над уровнем моря 256 м.

В архиве по умолчанию представлена погода в Аргаяше за последнюю неделю. Архивные данные за месяц целиком и за предыдущие месяцы, начиная с января 2011 года, Вы можете получить, выбрав интересующий диапазон дат из раскрывающегося списка и нажав кнопку "Ввод!".


*Определитесь, кто Вы:
робот инопланетянин человек

Внимание! Время в таблицах - всемирное. Для получения местного времени необходимо прибавить поправку, которая равна 5 ч.

Смотрите также архив погоды в соседних городах и на ближайших метеорологических станциях:

Погода в Челябинске (Челябинская область, Россия) (51 км)
Погода в Верхнем Уфалее (Челябинская область, Россия) (70 км)
Погода в Бродокалмаке (Челябинская область, Россия) (74 км)
Погода в Миассе (Челябинская область, Россия) (80 км)
Погода в Златоусте (Челябинская область, Россия) (89 км)
Погода в Нязепетровске (Челябинская область, Россия) (100 км)
Погода в Сысерти (Свердловская область, Россия) (106 км)
Погода в Каменск-Уральском (Свердловская область, Россия) (115 км)
Погода в Мирном (Челябинская область, Россия) (118 км)
Погода в Южноуральске (Челябинская область, Россия) (128 км)

Пояснения к столбцам:

Ветер - указаны скорость ветра в м/с - средняя за 10 мин, порывы в срок и между сроками (в фигурных скобках) и направление, откуда дует ветер: С - северный, СВ - северо-восточный, В - восточный, ЮВ - юго-восточный, Ю - южный, ЮЗ - юго-западный, З - западный, СЗ - северо-западный.
Видимость - горизонтальная дальность видимости в метрах или километрах. При видимости от 1 до 10 км при отсутствии осадков обычно наблюдается дымка, при ухудшении видимости до 1 км и менее - туман. В сухую погоду видимость может ухудшаться дымом, пылью или мглою.
Явления - указаны атмосферные явления, наблюдавшиеся в срок или в последний час перед сроком; фигурными скобками обозначены явления, наблюдавшиеся между сроками (за 1-3 часа до срока); квадратными скобками обозначены град или гололедные отложения с указанием их диаметра в мм.
Облачность - указаны через наклонную черту общая и нижняя облачность в баллах и высота нижней границы облаков в метрах; квадратными скобками обозначены формы облаков: Ci - перистые, Cs - перисто-слоистые, Cc - перисто-кучевые, Ac - высококучевые, As - высокослоистые, Sc - слоисто-кучевые, Ns - слоисто-дождевые, Cu - кучевые, Cb - кучево-дождевые. Подробнее классификацию облаков см. в Атласе облаков (PDF).
T - Температура воздуха - температура, измеренная на высоте 2 м над землей.
Td - Температура точки росы - температура, при понижении до которой содержащийся в воздухе водяной пар достигнет насыщения.
f - Относительная влажность воздуха - влажноcть воздуха, измеренная на высоте 2 м над землей.
Te - Эффективная температура - температура, которую ощущает одетый по сезону человек в тени. Характеристика душности погоды. При расчете учитывается влияние влажности воздуха и скорости ветра на теплоощущения человека.
Tes - Эффективная температура на солнце - температура, которую ощущает человек, с поправкой на солнечный нагрев. Характеристика знойности погоды. Зависит от высоты солнца над горизонтом, облачности и скорости ветра. Ночью, в пасмурную погоду, а также при ветре 12 м/с и более поправка равна нулю.
P - Атмосферное давление - приведенное к уровню моря атмосферное давление.
Po - Атмосферное давление - измеренное на уровне метеостанции атмосферное давление.
Tmin - Минимальная температура - минимум температуры воздуха на высоте 2 м над землей.
Tmax - Максимальная температура - максимум температуры воздуха на высоте 2 м над землей.
R - Количество осадков - Количество выпавших осадков за период времени, мм. При наведении курсора мыши на число - период времени, за который выпало указанное количество осадков.
R24 - Количество осадков - Количество выпавших осадков за 24 часа, мм.
S - Снежный покров - Высота снежного покрова, см. При наведении курсора мыши на число - состояние снежного покрова и степень покрытия местности в баллах.